Time,TemperatureF,DewpointF,PressureIn,WindDirection,WindDirectionDegrees,WindSpeedMPH,WindSpeedGustMPH,Humidity,HourlyPrecipIn,Conditions,Clouds,dailyrainin,SolarRadiationWatts/m^2,SoftwareType,DateUTC
2013-07-21 00:01:00,73.0,69.6,29.96,East,97,0.0,1.0,89,0.00,,,0.10,0.0,meteohub,2013-07-21 07:01:00,
2013-07-21 00:06:00,73.0,69.6,29.96,East,97,0.0,0.0,89,0.00,,,0.00,0.0,meteohub,2013-07-21 07:06:00,
2013-07-21 00:11:00,73.0,69.6,29.96,East,97,0.0,0.0,89,0.00,,,0.00,0.0,meteohub,2013-07-21 07:11:00,
2013-07-21 00:16:00,73.0,69.6,29.96,East,97,0.0,0.0,89,0.00,,,0.00,0.0,meteohub,2013-07-21 07:16:00,
2013-07-21 00:21:00,72.9,69.8,29.95,East,97,0.0,0.0,90,0.00,,,0.00,0.0,meteohub,2013-07-21 07:21:00,
2013-07-21 00:26:00,72.9,70.2,29.95,East,97,0.0,0.0,91,0.00,,,0.00,0.0,meteohub,2013-07-21 07:26:00,
2013-07-21 00:31:00,72.9,70.2,29.95,East,97,0.0,1.0,91,0.00,,,0.00,0.0,meteohub,2013-07-21 07:31:00,
2013-07-21 00:36:00,72.7,70.0,29.95,East,97,0.0,1.0,91,0.00,,,0.00,0.0,meteohub,2013-07-21 07:36:00,
2013-07-21 00:41:00,72.7,70.0,29.95,East,97,0.0,1.0,91,0.00,,,0.00,0.0,meteohub,2013-07-21 07:41:00,
2013-07-21 00:46:00,72.7,70.0,29.95,East,97,0.0,1.0,91,0.00,,,0.00,0.0,meteohub,2013-07-21 07:46:00,
2013-07-21 00:51:00,72.7,70.0,29.95,East,97,0.0,0.0,91,0.00,,,0.00,0.0,meteohub,2013-07-21 07:51:00,
2013-07-21 00:56:00,72.7,70.0,29.95,East,97,0.0,0.0,91,0.00,,,0.00,0.0,meteohub,2013-07-21 07:56:00,
2013-07-21 01:01:00,72.5,69.8,29.95,East,97,0.0,0.0,91,0.00,,,0.00,0.0,meteohub,2013-07-21 08:01:00,
2013-07-21 01:06:00,72.5,69.8,29.95,East,97,0.0,0.0,91,0.00,,,0.00,0.0,meteohub,2013-07-21 08:06:00,
2013-07-21 01:11:00,72.5,70.0,29.94,East,97,0.0,0.0,92,0.00,,,0.00,0.0,meteohub,2013-07-21 08:11:00,
2013-07-21 01:16:00,72.3,69.8,29.94,East,97,0.0,0.0,92,0.00,,,0.00,0.0,meteohub,2013-07-21 08:16:00,
2013-07-21 01:21:00,72.3,69.8,29.94,East,97,0.0,0.0,92,0.00,,,0.00,0.0,meteohub,2013-07-21 08:21:00,
2013-07-21 01:26:00,72.1,69.6,29.94,East,97,0.0,0.0,92,0.00,,,0.00,0.0,meteohub,2013-07-21 08:26:00,
2013-07-21 01:31:00,72.1,70.0,29.95,East,97,0.0,0.0,93,0.00,,,0.00,0.0,meteohub,2013-07-21 08:31:00,
2013-07-21 01:36:00,72.1,70.0,29.94,East,97,0.0,0.0,93,0.00,,,0.00,0.0,meteohub,2013-07-21 08:36:00,
2013-07-21 01:41:00,72.1,70.0,29.95,East,97,0.0,0.0,93,0.00,,,0.00,0.0,meteohub,2013-07-21 08:41:00,
2013-07-21 01:47:00,72.0,69.8,29.95,East,97,0.0,0.0,93,0.00,,,0.00,0.0,meteohub,2013-07-21 08:47:00,
2013-07-21 01:52:00,72.0,69.8,29.95,East,97,0.0,0.0,93,0.00,,,0.00,0.0,meteohub,2013-07-21 08:52:00,
2013-07-21 01:57:00,72.0,69.8,29.95,East,97,0.0,0.0,93,0.00,,,0.00,0.0,meteohub,2013-07-21 08:57:00,
2013-07-21 02:02:00,72.0,70.2,29.95,East,97,0.0,0.0,94,0.00,,,0.00,0.0,meteohub,2013-07-21 09:02:00,
2013-07-21 02:07:00,72.0,70.2,29.95,East,97,0.0,0.0,94,0.00,,,0.00,0.0,meteohub,2013-07-21 09:07:00,
2013-07-21 02:12:00,72.0,70.2,29.94,East,97,0.0,0.0,94,0.00,,,0.00,0.0,meteohub,2013-07-21 09:12:00,
2013-07-21 02:17:00,72.0,70.2,29.94,East,97,0.0,0.0,94,0.00,,,0.00,0.0,meteohub,2013-07-21 09:17:00,
2013-07-21 02:22:00,72.0,70.2,29.94,East,97,0.0,0.0,94,0.00,,,0.00,0.0,meteohub,2013-07-21 09:22:00,
2013-07-21 02:27:00,72.1,70.3,29.94,East,97,0.0,0.0,94,0.00,,,0.00,0.0,meteohub,2013-07-21 09:27:00,
2013-07-21 02:32:00,72.1,70.3,29.94,East,97,0.0,2.0,94,0.00,,,0.00,0.0,meteohub,2013-07-21 09:32:00,
2013-07-21 02:37:00,72.1,69.6,29.94,East,97,0.0,2.0,92,0.00,,,0.00,0.0,meteohub,2013-07-21 09:37:00,
2013-07-21 02:42:00,72.3,69.8,29.94,East,97,0.0,2.0,92,0.00,,,0.00,0.0,meteohub,2013-07-21 09:42:00,
2013-07-21 02:47:00,72.3,69.8,29.94,East,97,1.0,1.0,92,0.00,,,0.00,0.0,meteohub,2013-07-21 09:47:00,
2013-07-21 02:52:00,72.3,69.8,29.94,East,97,1.0,1.0,92,0.00,,,0.00,0.0,meteohub,2013-07-21 09:52:00,
2013-07-21 02:57:00,72.3,69.8,29.94,East,97,1.0,2.0,92,0.00,,,0.00,0.0,meteohub,2013-07-21 09:57:00,
2013-07-21 03:02:00,72.3,69.6,29.94,East,97,0.0,2.0,91,0.00,,,0.00,0.0,meteohub,2013-07-21 10:02:00,
2013-07-21 03:07:00,72.5,69.8,29.94,East,97,1.0,2.0,91,0.00,,,0.00,0.0,meteohub,2013-07-21 10:07:00,
2013-07-21 03:12:00,72.5,69.8,29.94,East,97,0.0,2.0,91,0.00,,,0.00,0.0,meteohub,2013-07-21 10:12:00,
2013-07-21 03:17:00,72.7,70.0,29.94,East,97,0.0,2.0,91,0.00,,,0.00,0.0,meteohub,2013-07-21 10:17:00,
2013-07-21 03:22:00,72.7,70.0,29.94,East,97,1.0,2.0,91,0.00,,,0.00,0.0,meteohub,2013-07-21 10:22:00,
2013-07-21 03:27:00,72.7,70.0,29.94,East,97,1.0,2.0,91,0.00,,,0.00,0.0,meteohub,2013-07-21 10:27:00,
2013-07-21 03:32:00,72.7,70.0,29.94,East,97,0.0,2.0,91,0.00,,,0.00,0.0,meteohub,2013-07-21 10:32:00,
2013-07-21 03:37:00,72.9,69.8,29.94,East,97,0.0,2.0,90,0.00,,,0.00,0.0,meteohub,2013-07-21 10:37:00,
2013-07-21 03:42:00,72.9,69.8,29.94,East,97,1.0,2.0,90,0.00,,,0.00,0.0,meteohub,2013-07-21 10:42:00,
2013-07-21 03:47:00,72.9,69.4,29.94,East,97,0.0,2.0,89,0.00,,,0.00,0.0,meteohub,2013-07-21 10:47:00,
2013-07-21 03:52:00,73.0,69.6,29.94,East,97,0.0,2.0,89,0.00,,,0.00,0.0,meteohub,2013-07-21 10:52:00,
2013-07-21 03:57:00,73.0,69.3,29.94,East,97,1.0,1.0,88,0.00,,,0.00,0.0,meteohub,2013-07-21 10:57:00,
2013-07-21 04:02:00,73.2,69.4,29.94,East,97,0.0,2.0,88,0.00,,,0.00,0.0,meteohub,2013-07-21 11:02:00,
2013-07-21 04:07:00,73.2,69.4,29.94,East,97,0.0,2.0,88,0.00,,,0.00,0.0,meteohub,2013-07-21 11:07:00,
2013-07-21 04:12:00,73.2,68.4,29.94,East,97,0.0,2.0,85,0.00,,,0.00,0.0,meteohub,2013-07-21 11:12:00,
2013-07-21 04:17:00,73.4,68.9,29.94,East,97,0.0,1.0,86,0.00,,,0.00,0.0,meteohub,2013-07-21 11:17:00,
2013-07-21 04:22:00,73.6,68.7,29.94,East,97,0.0,1.0,85,0.00,,,0.00,0.0,meteohub,2013-07-21 11:22:00,
2013-07-21 04:26:00,73.6,68.2,29.94,East,97,0.0,1.0,83,0.00,,,0.00,0.0,meteohub,2013-07-21 11:26:00,
2013-07-21 04:31:00,73.6,68.4,29.94,East,97,0.0,1.0,84,0.00,,,0.00,0.0,meteohub,2013-07-21 11:31:00,
2013-07-21 04:36:00,73.8,69.3,29.94,East,97,0.0,1.0,86,0.00,,,0.00,0.0,meteohub,2013-07-21 11:36:00,
2013-07-21 04:41:00,73.8,68.9,29.94,East,97,0.0,1.0,85,0.00,,,0.00,0.0,meteohub,2013-07-21 11:41:00,
2013-07-21 04:47:00,73.8,69.3,29.94,East,97,0.0,1.0,86,0.00,,,0.00,0.0,meteohub,2013-07-21 11:47:00,
2013-07-21 04:52:00,73.8,68.9,29.94,East,97,0.0,1.0,85,0.00,,,0.00,0.0,meteohub,2013-07-21 11:52:00,
2013-07-21 04:57:00,73.8,68.5,29.94,East,97,0.0,1.0,84,0.00,,,0.00,0.0,meteohub,2013-07-21 11:57:00,
2013-07-21 05:02:00,73.8,68.4,29.94,East,97,0.0,1.0,83,0.00,,,0.00,0.0,meteohub,2013-07-21 12:02:00,
2013-07-21 05:07:00,73.8,68.5,29.95,East,97,0.0,1.0,84,0.00,,,0.00,0.0,meteohub,2013-07-21 12:07:00,
2013-07-21 05:12:00,73.8,68.5,29.95,East,97,0.0,0.0,84,0.00,,,0.00,0.0,meteohub,2013-07-21 12:12:00,
2013-07-21 05:17:00,73.8,68.9,29.95,East,97,0.0,0.0,85,0.00,,,0.00,0.0,meteohub,2013-07-21 12:17:00,
2013-07-21 05:22:00,73.8,69.3,29.95,East,97,0.0,0.0,86,0.00,,,0.00,0.0,meteohub,2013-07-21 12:22:00,
2013-07-21 05:27:00,73.9,69.1,29.96,East,97,0.0,0.0,85,0.00,,,0.00,0.0,meteohub,2013-07-21 12:27:00,
2013-07-21 05:32:00,73.9,67.8,29.96,East,97,0.0,0.0,81,0.00,,,0.00,0.0,meteohub,2013-07-21 12:32:00,
2013-07-21 05:37:00,73.9,67.8,29.96,East,97,0.0,0.0,81,0.00,,,0.00,0.0,meteohub,2013-07-21 12:37:00,
2013-07-21 05:42:00,73.9,68.4,29.96,East,97,0.0,0.0,83,0.00,,,0.00,0.0,meteohub,2013-07-21 12:42:00,
2013-07-21 05:47:00,73.9,67.8,29.96,East,97,0.0,0.0,81,0.00,,,0.00,5.0,meteohub,2013-07-21 12:47:00,
2013-07-21 05:52:00,74.1,68.0,29.96,East,97,0.0,0.0,81,0.00,,,0.00,7.0,meteohub,2013-07-21 12:52:00,
2013-07-21 05:57:00,74.1,68.2,29.97,East,97,0.0,0.0,82,0.00,,,0.00,16.0,meteohub,2013-07-21 12:57:00,
2013-07-21 06:02:00,74.3,68.4,29.97,East,97,0.0,0.0,82,0.00,,,0.00,19.0,meteohub,2013-07-21 13:02:00,
2013-07-21 06:07:00,74.5,69.3,29.97,East,97,0.0,0.0,84,0.00,,,0.00,18.0,meteohub,2013-07-21 13:07:00,
2013-07-21 06:12:00,74.5,68.5,29.97,East,97,0.0,0.0,82,0.00,,,0.00,18.0,meteohub,2013-07-21 13:12:00,
2013-07-21 06:17:00,74.5,68.5,29.97,East,97,0.0,0.0,82,0.00,,,0.00,19.0,meteohub,2013-07-21 13:17:00,
2013-07-21 06:22:00,74.7,68.7,29.98,East,97,0.0,0.0,82,0.00,,,0.00,33.0,meteohub,2013-07-21 13:22:00,
2013-07-21 06:27:00,74.7,68.4,29.98,East,95,0.0,0.0,81,0.00,,,0.00,37.0,meteohub,2013-07-21 13:27:00,
2013-07-21 06:32:00,75.0,68.0,29.98,East,86,0.0,0.0,79,0.00,,,0.00,58.0,meteohub,2013-07-21 13:32:00,
2013-07-21 06:37:00,75.2,68.5,29.98,East,86,0.0,0.0,80,0.00,,,0.00,76.0,meteohub,2013-07-21 13:37:00,
2013-07-21 06:42:00,75.4,68.4,29.98,NW,315,0.0,0.0,79,0.00,,,0.00,79.0,meteohub,2013-07-21 13:42:00,
2013-07-21 06:47:00,75.6,68.2,29.98,West,276,1.0,3.0,78,0.00,,,0.00,84.0,meteohub,2013-07-21 13:47:00,
2013-07-21 06:52:00,75.6,68.2,29.99,West,276,0.0,3.0,78,0.00,,,0.00,104.0,meteohub,2013-07-21 13:52:00,
2013-07-21 06:57:00,75.7,67.6,29.99,West,276,0.0,3.0,76,0.00,,,0.00,113.0,meteohub,2013-07-21 13:57:00,
2013-07-21 07:02:00,76.1,68.0,29.99,West,276,0.0,3.0,76,0.00,,,0.00,130.0,meteohub,2013-07-21 14:02:00,
2013-07-21 07:07:00,76.3,67.5,29.99,West,276,2.0,3.0,74,0.00,,,0.00,163.0,meteohub,2013-07-21 14:07:00,
2013-07-21 07:12:00,76.5,68.0,29.99,NW,313,1.0,3.0,75,0.00,,,0.00,155.0,meteohub,2013-07-21 14:12:00,
2013-07-21 07:17:00,76.6,66.9,29.99,NW,310,1.0,4.0,72,0.00,,,0.00,169.0,meteohub,2013-07-21 14:17:00,
2013-07-21 07:22:00,77.2,67.8,29.99,West,281,1.0,5.0,73,0.00,,,0.00,262.0,meteohub,2013-07-21 14:22:00,
2013-07-21 07:27:00,77.7,68.0,29.99,West,267,1.0,5.0,72,0.00,,,0.00,329.0,meteohub,2013-07-21 14:27:00,
2013-07-21 07:32:00,78.1,67.5,29.99,NW,306,1.0,5.0,70,0.00,,,0.00,446.0,meteohub,2013-07-21 14:32:00,
2013-07-21 07:37:00,78.4,66.9,29.99,West,266,6.0,6.0,68,0.00,,,0.00,246.0,meteohub,2013-07-21 14:37:00,
2013-07-21 07:42:00,78.6,67.1,29.99,West,269,3.0,6.0,68,0.00,,,0.00,455.0,meteohub,2013-07-21 14:42:00,
2013-07-21 07:47:00,79.2,66.7,29.99,West,264,3.0,6.0,66,0.00,,,0.00,432.0,meteohub,2013-07-21 14:47:00,
2013-07-21 07:53:00,79.2,67.3,29.99,West,272,1.0,6.0,67,0.00,,,0.00,260.0,meteohub,2013-07-21 14:53:00,
2013-07-21 07:58:00,79.2,66.7,29.99,West,275,4.0,5.0,66,0.00,,,0.00,213.0,meteohub,2013-07-21 14:58:00,
2013-07-21 08:03:00,79.0,66.6,29.99,West,265,3.0,5.0,66,0.00,,,0.00,262.0,meteohub,2013-07-21 15:03:00,
2013-07-21 08:08:00,79.2,66.7,30.00,WNW,297,1.0,5.0,66,0.00,,,0.00,322.0,meteohub,2013-07-21 15:08:00,
2013-07-21 08:13:00,79.3,66.9,30.00,WNW,289,2.0,5.0,66,0.00,,,0.00,274.0,meteohub,2013-07-21 15:13:00,
2013-07-21 08:18:00,79.3,67.5,30.00,NW,311,3.0,6.0,67,0.00,,,0.00,271.0,meteohub,2013-07-21 15:18:00,
2013-07-21 08:23:00,79.5,67.1,30.00,WSW,250,2.0,6.0,66,0.00,,,0.00,374.0,meteohub,2013-07-21 15:23:00,
2013-07-21 08:28:00,79.9,67.5,30.00,NW,304,3.0,6.0,66,0.00,,,0.00,352.0,meteohub,2013-07-21 15:28:00,
2013-07-21 08:33:00,79.9,67.1,30.00,WSW,256,2.0,6.0,65,0.00,,,0.00,279.0,meteohub,2013-07-21 15:33:00,
2013-07-21 08:38:00,80.2,66.9,30.00,West,261,3.0,6.0,64,0.00,,,0.00,464.0,meteohub,2013-07-21 15:38:00,
2013-07-21 08:43:00,80.4,66.7,30.00,West,263,3.0,6.0,63,0.00,,,0.00,295.0,meteohub,2013-07-21 15:43:00,
2013-07-21 08:48:00,80.2,66.9,30.00,West,267,3.0,6.0,64,0.00,,,0.00,301.0,meteohub,2013-07-21 15:48:00,
2013-07-21 08:53:00,80.2,67.5,30.00,West,268,3.0,6.0,65,0.00,,,0.00,323.0,meteohub,2013-07-21 15:53:00,
2013-07-21 08:58:00,80.2,66.9,30.00,SW,234,3.0,6.0,64,0.00,,,0.00,374.0,meteohub,2013-07-21 15:58:00,
2013-07-21 09:03:00,80.4,67.6,30.00,WSW,250,4.0,6.0,65,0.00,,,0.00,341.0,meteohub,2013-07-21 16:03:00,
2013-07-21 09:08:00,80.6,66.4,30.00,WSW,257,1.0,6.0,62,0.00,,,0.00,485.0,meteohub,2013-07-21 16:08:00,
2013-07-21 09:13:00,81.0,67.1,30.01,WNW,296,3.0,6.0,63,0.00,,,0.00,422.0,meteohub,2013-07-21 16:13:00,
2013-07-21 09:18:00,81.3,67.1,30.00,West,281,2.0,6.0,62,0.00,,,0.00,475.0,meteohub,2013-07-21 16:18:00,
2013-07-21 09:23:00,81.7,66.9,30.00,West,271,3.0,6.0,61,0.00,,,0.00,438.0,meteohub,2013-07-21 16:23:00,
2013-07-21 09:28:00,81.7,66.9,30.00,West,265,2.0,6.0,61,0.00,,,0.00,888.0,meteohub,2013-07-21 16:28:00,
2013-07-21 09:33:00,82.0,67.6,30.00,SW,222,3.0,6.0,62,0.00,,,0.00,248.0,meteohub,2013-07-21 16:33:00,
2013-07-21 09:38:00,82.0,67.6,30.00,WSW,252,3.0,6.0,62,0.00,,,0.00,338.0,meteohub,2013-07-21 16:38:00,
2013-07-21 09:43:00,82.2,67.5,30.00,West,270,5.0,6.0,61,0.00,,,0.00,879.0,meteohub,2013-07-21 16:43:00,
2013-07-21 09:48:00,82.9,67.1,30.01,West,270,1.0,7.0,59,0.00,,,0.00,909.0,meteohub,2013-07-21 16:48:00,
2013-07-21 09:53:00,83.7,67.8,30.01,WNW,284,3.0,7.0,59,0.00,,,0.00,946.0,meteohub,2013-07-21 16:53:00,
2013-07-21 09:58:00,84.6,67.6,30.01,SW,229,4.0,7.0,57,0.00,,,0.00,1013.0,meteohub,2013-07-21 16:58:00,
2013-07-21 10:03:00,83.8,66.9,30.01,SSW,210,2.0,8.0,57,0.00,,,0.00,381.0,meteohub,2013-07-21 17:03:00,
2013-07-21 10:08:00,84.0,67.1,30.01,NW,313,5.0,8.0,57,0.00,,,0.00,930.0,meteohub,2013-07-21 17:08:00,
2013-07-21 10:13:00,84.0,66.6,30.01,WSW,247,4.0,8.0,56,0.00,,,0.00,932.0,meteohub,2013-07-21 17:13:00,
2013-07-21 10:18:00,84.2,66.2,30.01,SW,231,2.0,6.0,55,0.00,,,0.00,930.0,meteohub,2013-07-21 17:18:00,
2013-07-21 10:23:00,84.4,66.4,30.00,WSW,241,3.0,6.0,55,0.00,,,0.00,907.0,meteohub,2013-07-21 17:23:00,
2013-07-21 10:28:00,84.7,66.2,30.00,West,273,2.0,7.0,54,0.00,,,0.00,984.0,meteohub,2013-07-21 17:28:00,
2013-07-21 10:33:00,84.9,65.8,30.00,West,270,2.0,8.0,53,0.00,,,0.00,886.0,meteohub,2013-07-21 17:33:00,
2013-07-21 10:38:00,85.1,66.6,30.00,West,261,5.0,8.0,54,0.00,,,0.00,888.0,meteohub,2013-07-21 17:38:00,
2013-07-21 10:43:00,85.3,66.2,30.00,North,350,2.0,8.0,53,0.00,,,0.00,905.0,meteohub,2013-07-21 17:43:00,
2013-07-21 10:48:00,85.8,66.2,30.00,SW,233,3.0,7.0,52,0.00,,,0.00,932.0,meteohub,2013-07-21 17:48:00,
2013-07-21 10:53:00,86.2,65.8,30.00,WSW,245,5.0,7.0,51,0.00,,,0.00,967.0,meteohub,2013-07-21 17:53:00,
2013-07-21 10:58:00,87.1,65.7,30.00,SW,223,4.0,8.0,49,0.00,,,0.00,984.0,meteohub,2013-07-21 17:58:00,
2013-07-21 11:03:00,87.4,65.3,29.99,SW,218,2.0,8.0,48,0.00,,,0.00,1039.0,meteohub,2013-07-21 18:03:00,
2013-07-21 11:08:00,88.2,65.3,29.99,South,188,3.0,7.0,47,0.00,,,0.00,976.0,meteohub,2013-07-21 18:08:00,
2013-07-21 11:13:00,87.6,64.2,29.99,SW,222,2.0,6.0,46,0.00,,,0.00,258.0,meteohub,2013-07-21 18:13:00,
2013-07-21 11:18:00,87.4,65.3,29.99,South,188,5.0,6.0,48,0.00,,,0.00,1144.0,meteohub,2013-07-21 18:18:00,
2013-07-21 11:23:00,87.4,64.8,29.99,SSW,204,3.0,7.0,47,0.00,,,0.00,1023.0,meteohub,2013-07-21 18:23:00,
2013-07-21 11:28:00,88.0,64.6,29.99,SSW,204,5.0,7.0,46,0.00,,,0.00,469.0,meteohub,2013-07-21 18:28:00,
2013-07-21 11:33:00,87.1,64.4,29.99,West,270,2.0,8.0,47,0.00,,,0.00,230.0,meteohub,2013-07-21 18:33:00,
2013-07-21 11:38:00,86.2,64.8,29.99,WSW,257,3.0,10.0,49,0.00,,,0.00,225.0,meteohub,2013-07-21 18:38:00,
2013-07-21 11:43:00,85.8,64.4,29.99,SW,219,2.0,10.0,49,0.00,,,0.00,295.0,meteohub,2013-07-21 18:43:00,
2013-07-21 11:48:00,85.6,64.2,29.99,SW,223,5.0,10.0,49,0.00,,,0.00,380.0,meteohub,2013-07-21 18:48:00,
2013-07-21 11:53:00,85.6,63.7,29.99,West,281,2.0,7.0,48,0.00,,,0.00,376.0,meteohub,2013-07-21 18:53:00,
2013-07-21 11:58:00,85.8,64.4,29.99,West,259,5.0,7.0,49,0.00,,,0.00,394.0,meteohub,2013-07-21 18:58:00,
2013-07-21 12:03:00,86.2,64.2,29.99,SSW,211,2.0,7.0,48,0.00,,,0.00,334.0,meteohub,2013-07-21 19:03:00,
2013-07-21 12:08:00,86.4,64.4,29.99,WSW,255,2.0,7.0,48,0.00,,,0.00,341.0,meteohub,2013-07-21 19:08:00,
2013-07-21 12:13:00,86.4,64.4,29.99,West,273,2.0,7.0,48,0.00,,,0.00,441.0,meteohub,2013-07-21 19:13:00,
2013-07-21 12:19:00,86.7,64.8,29.99,West,261,3.0,10.0,48,0.00,,,0.00,1366.0,meteohub,2013-07-21 19:19:00,
2013-07-21 12:23:00,87.4,64.8,29.98,NW,323,3.0,10.0,47,0.00,,,0.00,550.0,meteohub,2013-07-21 19:23:00,
2013-07-21 12:28:00,87.8,63.9,29.98,NW,311,7.0,10.0,45,0.00,,,0.00,550.0,meteohub,2013-07-21 19:28:00,
2013-07-21 12:33:00,88.3,64.2,29.98,West,279,2.0,8.0,45,0.00,,,0.00,557.0,meteohub,2013-07-21 19:33:00,
2013-07-21 12:39:00,89.2,63.9,29.97,West,278,2.0,7.0,43,0.00,,,0.00,1371.0,meteohub,2013-07-21 19:39:00,
2013-07-21 12:44:00,89.4,63.3,29.97,South,190,4.0,7.0,42,0.00,,,0.00,452.0,meteohub,2013-07-21 19:44:00,
2013-07-21 12:49:00,89.4,62.6,29.97,SSW,204,3.0,6.0,41,0.00,,,0.00,397.0,meteohub,2013-07-21 19:49:00,
2013-07-21 12:54:00,89.4,61.9,29.97,SW,214,2.0,6.0,40,0.00,,,0.00,689.0,meteohub,2013-07-21 19:54:00,
2013-07-21 12:59:00,90.1,63.3,29.97,WSW,238,2.0,6.0,41,0.00,,,0.00,1107.0,meteohub,2013-07-21 19:59:00,
2013-07-21 13:04:00,90.9,62.4,29.97,South,184,5.0,7.0,39,0.00,,,0.00,1109.0,meteohub,2013-07-21 20:04:00,
2013-07-21 13:09:00,90.5,63.0,29.97,SW,229,5.0,8.0,40,0.00,,,0.00,1083.0,meteohub,2013-07-21 20:09:00,
2013-07-21 13:14:00,90.9,62.4,29.97,SW,235,4.0,8.0,39,0.00,,,0.00,1060.0,meteohub,2013-07-21 20:14:00,
2013-07-21 13:19:00,90.9,62.4,29.97,NE,41,1.0,8.0,39,0.00,,,0.00,1097.0,meteohub,2013-07-21 20:19:00,
2013-07-21 13:24:00,91.6,63.1,29.96,WSW,244,4.0,7.0,39,0.00,,,0.00,1085.0,meteohub,2013-07-21 20:24:00,
2013-07-21 13:29:00,91.6,62.4,29.96,SW,218,3.0,7.0,38,0.00,,,0.00,329.0,meteohub,2013-07-21 20:29:00,
2013-07-21 13:34:00,90.9,61.7,29.96,WSW,241,4.0,8.0,38,0.00,,,0.00,271.0,meteohub,2013-07-21 20:34:00,
2013-07-21 13:39:00,90.3,62.1,29.96,WNW,293,2.0,8.0,39,0.00,,,0.00,1106.0,meteohub,2013-07-21 20:39:00,
2013-07-21 13:44:00,90.7,61.5,29.96,WNW,291,1.0,8.0,38,0.00,,,0.00,1085.0,meteohub,2013-07-21 20:44:00,
2013-07-21 13:49:00,91.2,62.1,29.96,WSW,242,4.0,8.0,38,0.00,,,0.00,327.0,meteohub,2013-07-21 20:49:00,
2013-07-21 13:54:00,91.6,61.7,29.96,WNW,285,3.0,8.0,37,0.00,,,0.00,1141.0,meteohub,2013-07-21 20:54:00,
2013-07-21 13:59:00,91.6,61.7,29.95,SW,221,2.0,10.0,37,0.00,,,0.00,325.0,meteohub,2013-07-21 20:59:00,
2013-07-21 14:04:00,91.0,61.9,29.95,NW,319,2.0,10.0,38,0.00,,,0.00,299.0,meteohub,2013-07-21 21:04:00,
2013-07-21 14:09:00,91.6,62.4,29.95,West,280,3.0,10.0,38,0.00,,,0.00,1143.0,meteohub,2013-07-21 21:09:00,
2013-07-21 14:14:00,91.9,61.9,29.95,WSW,237,5.0,6.0,37,0.00,,,0.00,343.0,meteohub,2013-07-21 21:14:00,
2013-07-21 14:19:00,91.6,61.7,29.95,WSW,251,6.0,10.0,37,0.00,,,0.00,545.0,meteohub,2013-07-21 21:19:00,
2013-07-21 14:24:00,91.9,61.9,29.95,SW,223,4.0,10.0,37,0.00,,,0.00,1106.0,meteohub,2013-07-21 21:24:00,
2013-07-21 14:29:00,92.8,61.9,29.94,South,171,4.0,10.0,36,0.00,,,0.00,1067.0,meteohub,2013-07-21 21:29:00,
2013-07-21 14:34:00,92.5,61.7,29.94,NNW,340,4.0,9.0,36,0.00,,,0.00,336.0,meteohub,2013-07-21 21:34:00,
2013-07-21 14:39:00,91.9,61.9,29.94,WSW,255,2.0,9.0,37,0.00,,,0.00,341.0,meteohub,2013-07-21 21:39:00,
2013-07-21 14:44:00,92.5,62.4,29.94,SSW,205,3.0,11.0,37,0.00,,,0.00,1046.0,meteohub,2013-07-21 21:44:00,
2013-07-21 14:49:00,92.5,61.7,29.94,West,266,7.0,11.0,36,0.00,,,0.00,547.0,meteohub,2013-07-21 21:49:00,
2013-07-21 14:54:00,92.5,61.7,29.94,West,266,2.0,11.0,36,0.00,,,0.00,378.0,meteohub,2013-07-21 21:54:00,
2013-07-21 14:59:00,91.9,61.9,29.94,South,179,6.0,10.0,37,0.00,,,0.00,469.0,meteohub,2013-07-21 21:59:00,
2013-07-21 15:04:00,91.8,61.0,29.93,WSW,251,6.0,13.0,36,0.00,,,0.00,371.0,meteohub,2013-07-21 22:04:00,
2013-07-21 15:09:00,92.1,62.1,29.93,West,260,6.0,13.0,37,0.00,,,0.00,710.0,meteohub,2013-07-21 22:09:00,
2013-07-21 15:14:00,92.1,62.8,29.93,West,273,4.0,13.0,38,0.00,,,0.00,847.0,meteohub,2013-07-21 22:14:00,
2013-07-21 15:19:00,91.9,62.8,29.93,WSW,249,6.0,14.0,38,0.00,,,0.00,844.0,meteohub,2013-07-21 22:19:00,
2013-07-21 15:24:00,92.5,63.1,29.93,WSW,243,3.0,14.0,38,0.00,,,0.00,835.0,meteohub,2013-07-21 22:24:00,
2013-07-21 15:29:00,92.8,63.5,29.93,WSW,250,6.0,14.0,38,0.00,,,0.00,821.0,meteohub,2013-07-21 22:29:00,
2013-07-21 15:34:00,93.0,63.7,29.93,WSW,255,6.0,13.0,38,0.00,,,0.00,795.0,meteohub,2013-07-21 22:34:00,
2013-07-21 15:39:00,93.4,63.1,29.93,WSW,247,5.0,11.0,37,0.00,,,0.00,773.0,meteohub,2013-07-21 22:39:00,
2013-07-21 15:44:00,92.8,63.5,29.93,West,260,8.0,16.0,38,0.00,,,0.00,768.0,meteohub,2013-07-21 22:44:00,
2013-07-21 15:49:00,92.7,63.3,29.93,West,259,3.0,16.0,38,0.00,,,0.00,754.0,meteohub,2013-07-21 22:49:00,
2013-07-21 15:54:00,92.8,63.5,29.93,SW,223,8.0,16.0,38,0.00,,,0.00,775.0,meteohub,2013-07-21 22:54:00,
2013-07-21 15:59:00,92.7,63.3,29.93,West,269,6.0,11.0,38,0.00,,,0.00,745.0,meteohub,2013-07-21 22:59:00,
2013-07-21 16:04:00,92.7,63.3,29.93,WSW,245,9.0,12.0,38,0.00,,,0.00,710.0,meteohub,2013-07-21 23:04:00,
2013-07-21 16:09:00,91.9,63.5,29.93,WNW,293,4.0,12.0,39,0.00,,,0.00,684.0,meteohub,2013-07-21 23:09:00,
2013-07-21 16:14:00,91.9,63.5,29.93,WSW,254,7.0,12.0,39,0.00,,,0.00,631.0,meteohub,2013-07-21 23:14:00,
2013-07-21 16:19:00,91.4,63.0,29.93,West,265,7.0,13.0,39,0.00,,,0.00,629.0,meteohub,2013-07-21 23:19:00,
2013-07-21 16:24:00,91.6,63.1,29.93,West,265,9.0,13.0,39,0.00,,,0.00,615.0,meteohub,2013-07-21 23:24:00,
2013-07-21 16:29:00,91.4,63.0,29.93,West,273,7.0,12.0,39,0.00,,,0.00,570.0,meteohub,2013-07-21 23:29:00,
2013-07-21 16:34:00,91.0,63.3,29.93,WSW,248,3.0,10.0,40,0.00,,,0.00,552.0,meteohub,2013-07-21 23:34:00,
2013-07-21 16:39:00,91.2,62.8,29.92,WSW,245,10.0,10.0,39,0.00,,,0.00,552.0,meteohub,2013-07-21 23:39:00,
2013-07-21 16:44:00,91.0,63.3,29.92,SSW,211,6.0,10.0,40,0.00,,,0.00,531.0,meteohub,2013-07-21 23:44:00,
2013-07-21 16:49:00,91.2,63.5,29.92,West,271,5.0,10.0,40,0.00,,,0.00,524.0,meteohub,2013-07-21 23:49:00,
2013-07-21 16:54:00,91.2,62.8,29.92,West,259,6.0,10.0,39,0.00,,,0.00,497.0,meteohub,2013-07-21 23:54:00,
2013-07-21 16:59:00,91.2,62.8,29.92,SW,236,9.0,9.0,39,0.00,,,0.00,482.0,meteohub,2013-07-21 23:59:00,
2013-07-21 17:04:00,90.9,63.1,29.92,West,275,5.0,12.0,40,0.00,,,0.00,473.0,meteohub,2013-07-22 00:04:00,
2013-07-21 17:09:00,90.7,63.0,29.92,WSW,250,5.0,12.0,40,0.00,,,0.00,462.0,meteohub,2013-07-22 00:09:00,
2013-07-21 17:14:00,91.0,63.3,29.92,WSW,254,6.0,12.0,40,0.00,,,0.00,454.0,meteohub,2013-07-22 00:14:00,
2013-07-21 17:19:00,90.7,63.0,29.92,WSW,250,4.0,12.0,40,0.00,,,0.00,445.0,meteohub,2013-07-22 00:19:00,
2013-07-21 17:24:00,90.1,62.6,29.92,WSW,251,8.0,12.0,40,0.00,,,0.00,431.0,meteohub,2013-07-22 00:24:00,
2013-07-21 17:29:00,89.8,63.0,29.92,West,270,4.0,13.0,41,0.00,,,0.00,403.0,meteohub,2013-07-22 00:29:00,
2013-07-21 17:34:00,90.0,62.4,29.92,SW,234,7.0,13.0,40,0.00,,,0.00,380.0,meteohub,2013-07-22 00:34:00,
2013-07-21 17:39:00,89.8,63.0,29.92,West,261,9.0,13.0,41,0.00,,,0.00,359.0,meteohub,2013-07-22 00:39:00,
2013-07-21 17:44:00,89.8,62.2,29.92,West,265,2.0,11.0,40,0.00,,,0.00,357.0,meteohub,2013-07-22 00:44:00,
2013-07-21 17:49:00,89.4,62.6,29.93,WSW,254,4.0,10.0,41,0.00,,,0.00,174.0,meteohub,2013-07-22 00:49:00,
2013-07-21 17:54:00,89.1,62.2,29.93,WSW,257,2.0,10.0,41,0.00,,,0.00,153.0,meteohub,2013-07-22 00:54:00,
2013-07-21 17:55:00,89.1,62.2,29.93,WSW,246,5.0,10.0,41,0.00,,,0.00,141.0,meteohub,2013-07-22 00:55:00,
2013-07-21 18:00:00,88.3,62.4,29.93,NW,317,3.0,12.0,42,0.00,,,0.00,127.0,meteohub,2013-07-22 01:00:00,
2013-07-21 18:05:00,87.8,62.6,29.94,WSW,250,8.0,12.0,43,0.00,,,0.00,132.0,meteohub,2013-07-22 01:05:00,
2013-07-21 18:10:00,87.8,62.6,29.94,SSW,203,4.0,12.0,43,0.00,,,0.00,237.0,meteohub,2013-07-22 01:10:00,
2013-07-21 18:15:00,87.8,62.6,29.93,SSW,202,5.0,11.0,43,0.00,,,0.00,127.0,meteohub,2013-07-22 01:15:00,
2013-07-21 18:20:00,87.4,62.8,29.93,West,261,2.0,8.0,44,0.00,,,0.00,118.0,meteohub,2013-07-22 01:20:00,
2013-07-21 18:25:00,87.4,63.5,29.94,SSW,202,3.0,8.0,45,0.00,,,0.00,91.0,meteohub,2013-07-22 01:25:00,
2013-07-21 18:30:00,87.3,62.6,29.94,West,271,6.0,8.0,44,0.00,,,0.00,69.0,meteohub,2013-07-22 01:30:00,
2013-07-21 18:35:00,87.1,63.1,29.94,SW,234,2.0,7.0,45,0.00,,,0.00,51.0,meteohub,2013-07-22 01:35:00,
2013-07-21 18:36:00,86.9,63.0,29.94,SW,218,2.0,7.0,45,0.00,,,0.00,49.0,meteohub,2013-07-22 01:36:00,
2013-07-21 18:41:00,86.7,62.8,29.94,West,263,3.0,7.0,45,0.00,,,0.00,42.0,meteohub,2013-07-22 01:41:00,
2013-07-21 18:46:00,86.5,63.3,29.94,West,262,1.0,7.0,46,0.00,,,0.00,37.0,meteohub,2013-07-22 01:46:00,
2013-07-21 18:51:00,86.5,63.3,29.94,West,262,3.0,6.0,46,0.00,,,0.00,37.0,meteohub,2013-07-22 01:51:00,
2013-07-21 18:56:00,86.5,63.3,29.94,WSW,253,2.0,7.0,46,0.00,,,0.00,32.0,meteohub,2013-07-22 01:56:00,
2013-07-21 19:01:00,86.5,63.3,29.94,WSW,255,4.0,7.0,46,0.00,,,0.00,21.0,meteohub,2013-07-22 02:01:00,
2013-07-21 19:06:00,86.4,63.1,29.94,West,277,3.0,7.0,46,0.00,,,0.00,16.0,meteohub,2013-07-22 02:06:00,
2013-07-21 19:11:00,86.4,63.1,29.94,West,261,5.0,6.0,46,0.00,,,0.00,12.0,meteohub,2013-07-22 02:11:00,
2013-07-21 19:17:00,86.4,63.1,29.95,WSW,249,2.0,6.0,46,0.00,,,0.00,7.0,meteohub,2013-07-22 02:17:00,
2013-07-21 19:22:00,86.4,63.1,29.95,WSW,254,1.0,6.0,46,0.00,,,0.00,5.0,meteohub,2013-07-22 02:22:00,
2013-07-21 19:27:00,86.2,62.4,29.95,SW,219,2.0,6.0,45,0.00,,,0.00,0.0,meteohub,2013-07-22 02:27:00,
2013-07-21 19:33:00,86.2,62.4,29.95,SSW,212,4.0,4.0,45,0.00,,,0.00,0.0,meteohub,2013-07-22 02:33:00,
2013-07-21 19:38:00,86.2,61.7,29.95,SSW,202,3.0,4.0,44,0.00,,,0.00,0.0,meteohub,2013-07-22 02:38:00,
2013-07-21 19:43:00,86.0,62.2,29.96,SSW,205,3.0,4.0,45,0.00,,,0.00,0.0,meteohub,2013-07-22 02:43:00,
2013-07-21 19:48:00,85.8,63.3,29.96,SSW,207,2.0,6.0,47,0.00,,,0.00,0.0,meteohub,2013-07-22 02:48:00,
2013-07-21 19:53:00,85.6,63.1,29.96,SW,214,2.0,6.0,47,0.00,,,0.00,0.0,meteohub,2013-07-22 02:53:00,
2013-07-21 19:58:00,85.6,63.1,29.96,SSW,196,2.0,5.0,47,0.00,,,0.00,0.0,meteohub,2013-07-22 02:58:00,
2013-07-21 20:03:00,85.5,64.0,29.96,South,176,2.0,5.0,49,0.00,,,0.00,0.0,meteohub,2013-07-22 03:03:00,
2013-07-21 20:08:00,85.3,64.6,29.96,South,189,3.0,6.0,50,0.00,,,0.00,0.0,meteohub,2013-07-22 03:08:00,
2013-07-21 20:13:00,84.7,64.0,29.96,SW,223,2.0,7.0,50,0.00,,,0.00,0.0,meteohub,2013-07-22 03:13:00,
2013-07-21 20:18:00,84.6,64.9,29.97,SW,229,3.0,7.0,52,0.00,,,0.00,0.0,meteohub,2013-07-22 03:18:00,
2013-07-21 20:23:00,84.4,64.8,29.97,SSW,211,2.0,7.0,52,0.00,,,0.00,0.0,meteohub,2013-07-22 03:23:00,
2013-07-21 20:28:00,84.0,64.6,29.97,West,269,5.0,9.0,52,0.00,,,0.00,0.0,meteohub,2013-07-22 03:28:00,
2013-07-21 20:33:00,83.8,64.4,29.97,SW,234,2.0,9.0,52,0.00,,,0.00,0.0,meteohub,2013-07-22 03:33:00,
2013-07-21 20:38:00,83.7,64.2,29.97,SW,216,3.0,9.0,52,0.00,,,0.00,0.0,meteohub,2013-07-22 03:38:00,
2013-07-21 20:43:00,83.5,64.6,29.98,SW,235,1.0,8.0,53,0.00,,,0.00,0.0,meteohub,2013-07-22 03:43:00,
2013-07-21 20:48:00,83.1,64.2,29.98,SW,230,0.0,6.0,53,0.00,,,0.00,0.0,meteohub,2013-07-22 03:48:00,
2013-07-21 20:53:00,83.1,64.2,29.98,West,262,1.0,5.0,53,0.00,,,0.00,0.0,meteohub,2013-07-22 03:53:00,
2013-07-21 20:58:00,82.9,64.0,29.98,West,262,1.0,4.0,53,0.00,,,0.00,0.0,meteohub,2013-07-22 03:58:00,
2013-07-21 21:01:00,82.9,64.0,29.99,West,262,0.0,4.0,53,0.00,,,0.00,0.0,meteohub,2013-07-22 04:01:00,
2013-07-21 21:03:00,82.9,64.0,29.99,West,262,1.0,4.0,53,0.00,,,0.00,0.0,meteohub,2013-07-22 04:03:00,
2013-07-21 21:08:00,82.8,64.4,29.99,West,262,1.0,4.0,54,0.00,,,0.00,0.0,meteohub,2013-07-22 04:08:00,
2013-07-21 21:13:00,82.8,64.4,29.99,West,262,1.0,1.0,54,0.00,,,0.00,0.0,meteohub,2013-07-22 04:13:00,
2013-07-21 21:18:00,82.8,64.4,29.99,South,172,0.0,2.0,54,0.00,,,0.00,0.0,meteohub,2013-07-22 04:18:00,
2013-07-21 21:23:00,82.8,64.4,30.00,South,169,1.0,2.0,54,0.00,,,0.00,0.0,meteohub,2013-07-22 04:23:00,
2013-07-21 21:28:00,82.6,64.2,29.99,SSW,213,2.0,3.0,54,0.00,,,0.00,0.0,meteohub,2013-07-22 04:28:00,
2013-07-21 21:33:00,82.6,64.8,30.00,SSW,213,0.0,3.0,55,0.00,,,0.00,0.0,meteohub,2013-07-22 04:33:00,
2013-07-21 21:38:00,82.4,64.6,30.00,SW,222,1.0,3.0,55,0.00,,,0.00,0.0,meteohub,2013-07-22 04:38:00,
2013-07-21 21:43:00,82.2,64.4,30.00,SW,222,2.0,4.0,55,0.00,,,0.00,0.0,meteohub,2013-07-22 04:43:00,
2013-07-21 21:48:00,82.2,64.4,30.00,SW,216,1.0,4.0,55,0.00,,,0.00,0.0,meteohub,2013-07-22 04:48:00,
2013-07-21 21:53:00,82.0,64.8,30.00,SW,230,3.0,4.0,56,0.00,,,0.00,0.0,meteohub,2013-07-22 04:53:00,
2013-07-21 21:58:00,81.9,64.6,30.00,WSW,243,2.0,5.0,56,0.00,,,0.00,0.0,meteohub,2013-07-22 04:58:00,
2013-07-21 22:03:00,81.7,64.9,30.00,West,259,0.0,5.0,57,0.00,,,0.00,0.0,meteohub,2013-07-22 05:03:00,
2013-07-21 22:08:00,81.5,64.8,30.00,WSW,257,0.0,5.0,57,0.00,,,0.00,0.0,meteohub,2013-07-22 05:08:00,
2013-07-21 22:13:00,81.3,64.6,30.00,WSW,257,0.0,5.0,57,0.00,,,0.00,0.0,meteohub,2013-07-22 05:13:00,
2013-07-21 22:18:00,81.3,65.1,30.01,WSW,257,0.0,3.0,58,0.00,,,0.00,0.0,meteohub,2013-07-22 05:18:00,
2013-07-21 22:23:00,81.1,64.9,30.01,WSW,257,0.0,2.0,58,0.00,,,0.00,0.0,meteohub,2013-07-22 05:23:00,
2013-07-21 22:28:00,81.0,64.8,30.01,WSW,257,0.0,2.0,58,0.00,,,0.00,0.0,meteohub,2013-07-22 05:28:00,
2013-07-21 22:33:00,80.8,65.1,30.01,WSW,257,0.0,1.0,59,0.00,,,0.00,0.0,meteohub,2013-07-22 05:33:00,
2013-07-21 22:38:00,80.6,64.9,30.01,WSW,257,0.0,0.0,59,0.00,,,0.00,0.0,meteohub,2013-07-22 05:38:00,
2013-07-21 22:43:00,80.4,65.3,30.01,WSW,257,0.0,0.0,60,0.00,,,0.00,0.0,meteohub,2013-07-22 05:43:00,
2013-07-21 22:48:00,80.2,65.5,30.02,WSW,257,0.0,1.0,61,0.00,,,0.00,0.0,meteohub,2013-07-22 05:48:00,
2013-07-21 22:53:00,80.1,65.8,30.02,WSW,257,0.0,1.0,62,0.00,,,0.00,0.0,meteohub,2013-07-22 05:53:00,
2013-07-21 22:58:00,79.9,65.7,30.02,WSW,257,2.0,2.0,62,0.00,,,0.00,0.0,meteohub,2013-07-22 05:58:00,
2013-07-21 23:03:00,79.9,65.7,30.02,WSW,257,0.0,2.0,62,0.00,,,0.00,0.0,meteohub,2013-07-22 06:03:00,
2013-07-21 23:08:00,79.7,65.5,30.02,SSW,200,2.0,2.0,62,0.00,,,0.00,0.0,meteohub,2013-07-22 06:08:00,
2013-07-21 23:13:00,79.5,65.8,30.02,SSW,198,2.0,2.0,63,0.00,,,0.00,0.0,meteohub,2013-07-22 06:13:00,
2013-07-21 23:18:00,79.5,65.8,30.02,SSW,198,1.0,3.0,63,0.00,,,0.00,0.0,meteohub,2013-07-22 06:18:00,
2013-07-21 23:23:00,79.5,65.8,30.02,SSW,199,1.0,3.0,63,0.00,,,0.00,0.0,meteohub,2013-07-22 06:23:00,
2013-07-21 23:28:00,79.5,65.8,30.03,SSW,199,0.0,2.0,63,0.00,,,0.00,0.0,meteohub,2013-07-22 06:28:00,
2013-07-21 23:33:00,79.5,65.8,30.03,SSW,199,1.0,2.0,63,0.00,,,0.00,0.0,meteohub,2013-07-22 06:33:00,
2013-07-21 23:38:00,79.5,65.8,30.03,SSW,199,1.0,2.0,63,0.00,,,0.00,0.0,meteohub,2013-07-22 06:38:00,
2013-07-21 23:43:00,79.5,65.8,30.03,SSW,199,0.0,2.0,63,0.00,,,0.00,0.0,meteohub,2013-07-22 06:43:00,
2013-07-21 23:48:00,79.5,65.8,30.03,SSW,199,1.0,2.0,63,0.00,,,0.00,0.0,meteohub,2013-07-22 06:48:00,
2013-07-21 23:53:00,79.5,65.8,30.03,SSW,199,1.0,2.0,63,0.00,,,0.00,0.0,meteohub,2013-07-22 06:53:00,
2013-07-21 23:58:00,79.5,65.8,30.03,SSW,202,0.0,1.0,63,0.00,,,0.00,0.0,meteohub,2013-07-22 06:58:00,